| time (UTC) | temp C | wind direction | speed KPH | gust KPH | rain 1hr cm | rain 24hr cm | rain mn cm | humidity % | barometer mb |
| 20260504110303 | 5 | 282 | 0.0 | 0.0 | 0.00 | 0.00 | 0.00 | 87 | 1013.4 |
| 20260504081802 | 5 | 282 | 0.0 | 0.0 | 0.00 | 0.00 | 0.00 | 79 | 1013.7 |
| 20260504080803 | 5 | 282 | 0.0 | 0.0 | 0.00 | 0.00 | 0.00 | 78 | 1013.7 |
| 20260504070303 | 6 | 282 | 0.0 | 0.0 | 0.00 | 0.00 | 0.00 | 74 | 1013.5 |
| 20260504050304 | 7 | 282 | 0.0 | 0.0 | 0.00 | 0.00 | 0.00 | 70 | 1013.7 |
| 20260504045804 | 7 | 282 | 0.0 | 0.0 | 0.00 | 0.00 | 0.00 | 70 | 1013.8 |
| 20260504045304 | 7 | 282 | 0.0 | 0.0 | 0.00 | 0.00 | 0.00 | 70 | 1013.8 |
| 20260504044802 | 7 | 282 | 0.0 | 0.0 | 0.00 | 0.00 | 0.00 | 68 | 1013.7 |
| 20260504044304 | 7 | 282 | 0.0 | 0.0 | 0.00 | 0.00 | 0.00 | 68 | 1013.7 |
| 20260504043802 | 7 | 282 | 0.0 | 0.0 | 0.00 | 0.00 | 0.00 | 68 | 1013.8 |
| 20260504043303 | 7 | 282 | 0.0 | 0.0 | 0.00 | 0.00 | 0.00 | 68 | 1013.7 |
| 20260504042803 | 7 | 282 | 0.0 | 0.0 | 0.00 | 0.00 | 0.00 | 69 | 1013.7 |
| 20260504042304 | 7 | 282 | 0.0 | 0.0 | 0.00 | 0.00 | 0.00 | 69 | 1013.7 |
| 20260504041803 | 7 | 282 | 0.0 | 0.0 | 0.00 | 0.00 | 0.00 | 68 | 1013.7 |
| 20260504041303 | 7 | 282 | 0.0 | 0.0 | 0.00 | 0.00 | 0.00 | 68 | 1013.7 |
| 20260504040303 | 7 | 282 | 0.0 | 0.0 | 0.00 | 0.00 | 0.00 | 68 | 1013.6 |
| 20260504035803 | 7 | 282 | 0.0 | 0.0 | 0.00 | 0.00 | 0.00 | 68 | 1013.5 |
| 20260504035304 | 7 | 282 | 0.0 | 0.0 | 0.00 | 0.00 | 0.00 | 69 | 1013.4 |
| 20260504034803 | 7 | 282 | 0.0 | 0.0 | 0.00 | 0.00 | 0.00 | 68 | 1013.3 |
| 20260504033804 | 7 | 282 | 0.0 | 0.0 | 0.00 | 0.00 | 0.00 | 67 | 1013.2 |
| 20260504032803 | 8 | 282 | 0.0 | 0.0 | 0.00 | 0.00 | 0.00 | 66 | 1013.1 |
| 20260504032304 | 8 | 282 | 0.0 | 0.0 | 0.00 | 0.00 | 0.00 | 66 | 1013.1 |
| 20260504031303 | 8 | 282 | 0.0 | 0.0 | 0.00 | 0.00 | 0.00 | 65 | 1013.0 |
| 20260504030803 | 8 | 282 | 0.0 | 0.0 | 0.00 | 0.00 | 0.00 | 65 | 1013.0 |
| 20260504030303 | 8 | 282 | 0.0 | 0.0 | 0.00 | 0.00 | 0.00 | 64 | 1013.0 |
| 20260504025803 | 8 | 282 | 0.0 | 0.0 | 0.00 | 0.00 | 0.00 | 64 | 1013.0 |
| 20260504025304 | 8 | 282 | 0.0 | 0.0 | 0.00 | 0.00 | 0.00 | 64 | 1013.0 |
| 20260504024303 | 8 | 282 | 0.0 | 0.0 | 0.00 | 0.00 | 0.00 | 64 | 1013.1 |
| 20260504023803 | 8 | 282 | 0.0 | 0.0 | 0.00 | 0.00 | 0.00 | 63 | 1013.1 |
| 20260504022304 | 9 | 282 | 0.0 | 0.0 | 0.00 | 0.00 | 0.00 | 62 | 1013.1 |
| 20260504021803 | 9 | 282 | 0.0 | 0.0 | 0.00 | 0.00 | 0.00 | 63 | 1013.1 |
| 20260504021303 | 9 | 282 | 0.0 | 0.0 | 0.00 | 0.00 | 0.00 | 62 | 1013.2 |
| 20260504020303 | 9 | 282 | 0.0 | 0.0 | 0.00 | 0.00 | 0.00 | 62 | 1013.1 |
| 20260504015803 | 9 | 282 | 0.0 | 0.0 | 0.00 | 0.00 | 0.00 | 62 | 1013.1 |
| 20260504015304 | 9 | 282 | 0.0 | 0.0 | 0.00 | 0.00 | 0.00 | 62 | 1013.1 |
| 20260504014804 | 9 | 282 | 0.0 | 0.0 | 0.00 | 0.00 | 0.00 | 61 | 1013.0 |
| 20260504014303 | 9 | 282 | 0.0 | 0.0 | 0.00 | 0.00 | 0.00 | 61 | 1013.0 |
| 20260504013803 | 10 | 282 | 0.0 | 0.0 | 0.00 | 0.00 | 0.00 | 60 | 1013.0 |
| 20260504013303 | 10 | 282 | 0.0 | 0.0 | 0.00 | 0.00 | 0.00 | 60 | 1013.0 |
| 20260504012803 | 10 | 282 | 0.0 | 0.0 | 0.00 | 0.00 | 0.00 | 60 | 1013.0 |
| 20260504012304 | 10 | 282 | 0.0 | 0.0 | 0.00 | 0.00 | 0.00 | 59 | 1012.9 |
| 20260504011805 | 10 | 282 | 0.0 | 0.0 | 0.00 | 0.00 | 0.00 | 59 | 1012.9 |
| 20260504011304 | 10 | 282 | 0.0 | 0.0 | 0.00 | 0.00 | 0.00 | 58 | 1012.9 |
| 20260504010820 | 10 | 282 | 0.0 | 0.0 | 0.00 | 0.00 | 0.00 | 58 | 1012.9 |
| 20260504010303 | 10 | 282 | 0.0 | 0.0 | 0.00 | 0.00 | 0.00 | 58 | 1012.9 |
| 20260504005803 | 11 | 282 | 0.0 | 0.0 | 0.00 | 0.00 | 0.00 | 57 | 1012.9 |
| 20260504005304 | 11 | 282 | 0.0 | 0.0 | 0.00 | 0.00 | 0.00 | 57 | 1012.8 |
| 20260504004803 | 11 | 282 | 0.0 | 0.0 | 0.00 | 0.00 | 0.00 | 56 | 1012.8 |
| 20260504003303 | 12 | 282 | 0.0 | 0.0 | 0.00 | 0.00 | 0.00 | 54 | 1012.6 |
| 20260504002803 | 12 | 282 | 0.0 | 0.0 | 0.00 | 0.00 | 0.00 | 53 | 1012.5 |
| 20260504001803 | 12 | 282 | 0.0 | 0.0 | 0.00 | 0.00 | 0.00 | 52 | 1012.4 |
| 20260504001303 | 12 | 282 | 0.0 | 0.0 | 0.00 | 0.00 | 0.00 | 52 | 1012.4 |
| 20260504000803 | 12 | 282 | 0.0 | 0.0 | 0.00 | 0.00 | 0.00 | 51 | 1012.3 |
| 20260504000303 | 13 | 282 | 0.0 | 0.0 | 0.00 | 0.00 | 0.00 | 50 | 1012.2 |
| 20260503235304 | 13 | 340 | 0.0 | 8.0 | 0.00 | 0.00 | 0.00 | 51 | 1012.3 |
| 20260503234804 | 13 | 22 | 0.0 | 0.0 | 0.00 | 0.00 | 0.00 | 50 | 1012.2 |
| 20260503234303 | 13 | 22 | 0.0 | 0.0 | 0.00 | 0.00 | 0.00 | 50 | 1012.1 |
| 20260503233303 | 13 | 305 | 0.0 | 3.2 | 0.00 | 0.00 | 0.00 | 49 | 1012.0 |
| 20260503231803 | 14 | 306 | 0.0 | 0.0 | 0.00 | 0.00 | 0.00 | 49 | 1011.9 |
| 20260503230803 | 14 | 308 | 3.2 | 14.5 | 0.00 | 0.00 | 0.00 | 48 | 1011.9 |
| 20260503230303 | 14 | 312 | 0.0 | 4.8 | 0.00 | 0.00 | 0.00 | 48 | 1011.9 |
| 20260503225802 | 14 | 312 | 0.0 | 11.3 | 0.00 | 0.00 | 0.00 | 48 | 1011.8 |
| 20260503225305 | 15 | 292 | 1.6 | 4.8 | 0.00 | 0.00 | 0.00 | 48 | 1011.8 |
| 20260503224803 | 15 | 238 | 3.2 | 12.9 | 0.00 | 0.00 | 0.00 | 46 | 1011.7 |
| 20260503224303 | 15 | 232 | 3.2 | 14.5 | 0.00 | 0.00 | 0.00 | 47 | 1011.8 |
| 20260503223303 | 15 | 240 | 0.0 | 11.3 | 0.00 | 0.00 | 0.00 | 48 | 1011.8 |
| 20260503222304 | 15 | 281 | 0.0 | 8.0 | 0.00 | 0.00 | 0.00 | 47 | 1011.8 |
| 20260503221803 | 15 | 294 | 3.2 | 19.3 | 0.00 | 0.00 | 0.00 | 47 | 1011.8 |
| 20260503221304 | 15 | 300 | 1.6 | 9.7 | 0.00 | 0.00 | 0.00 | 47 | 1011.9 |
| 20260503220803 | 15 | 316 | 3.2 | 12.9 | 0.00 | 0.00 | 0.00 | 47 | 1012.0 |
| 20260503220303 | 15 | 320 | 1.6 | 11.3 | 0.00 | 0.00 | 0.00 | 47 | 1012.0 |
| 20260503215804 | 15 | 306 | 1.6 | 12.9 | 0.00 | 0.00 | 0.00 | 46 | 1012.0 |
| 20260503215304 | 15 | 334 | 3.2 | 11.3 | 0.00 | 0.00 | 0.00 | 45 | 1011.9 |
| 20260503214803 | 15 | 313 | 3.2 | 9.7 | 0.00 | 0.00 | 0.00 | 46 | 1011.9 |
| 20260503213803 | 15 | 287 | 1.6 | 22.5 | 0.00 | 0.00 | 0.00 | 47 | 1011.6 |
| 20260503213303 | 15 | 289 | 3.2 | 20.9 | 0.00 | 0.00 | 0.00 | 47 | 1011.6 |
| 20260503212803 | 15 | 300 | 3.2 | 16.1 | 0.00 | 0.00 | 0.00 | 47 | 1011.5 |
| 20260503211803 | 15 | 270 | 1.6 | 14.5 | 0.00 | 0.00 | 0.00 | 47 | 1011.4 |
| 20260503210803 | 15 | 297 | 4.8 | 16.1 | 0.00 | 0.00 | 0.00 | 46 | 1011.5 |
| 20260503210303 | 15 | 309 | 1.6 | 19.3 | 0.00 | 0.00 | 0.00 | 48 | 1011.5 |
| 20260503205803 | 15 | 196 | 0.0 | 9.7 | 0.00 | 0.00 | 0.00 | 47 | 1011.5 |
| 20260503205304 | 15 | 285 | 1.6 | 19.3 | 0.00 | 0.00 | 0.00 | 48 | 1011.2 |
| 20260503204803 | 15 | 312 | 3.2 | 12.9 | 0.00 | 0.00 | 0.00 | 46 | 1011.5 |
| 20260503204303 | 15 | 291 | 3.2 | 14.5 | 0.00 | 0.00 | 0.00 | 47 | 1011.6 |
| 20260503203803 | 15 | 13 | 1.6 | 12.9 | 0.00 | 0.00 | 0.00 | 48 | 1011.5 |
| 20260503203303 | 15 | 263 | 1.6 | 11.3 | 0.00 | 0.00 | 0.00 | 47 | 1011.6 |
| 20260503202803 | 14 | 269 | 3.2 | 12.9 | 0.00 | 0.00 | 0.00 | 49 | 1011.7 |
| 20260503202304 | 14 | 340 | 3.2 | 16.1 | 0.00 | 0.00 | 0.00 | 48 | 1011.7 |
| 20260503201803 | 14 | 319 | 3.2 | 16.1 | 0.00 | 0.00 | 0.00 | 46 | 1011.7 |
| 20260503201304 | 14 | 293 | 3.2 | 11.3 | 0.00 | 0.00 | 0.00 | 47 | 1012.0 |
| 20260503200304 | 15 | 287 | 4.8 | 12.9 | 0.00 | 0.00 | 0.00 | 46 | 1012.1 |
| 20260503195803 | 15 | 319 | 3.2 | 12.9 | 0.00 | 0.00 | 0.00 | 47 | 1012.0 |
| 20260503195304 | 14 | 244 | 4.8 | 16.1 | 0.00 | 0.00 | 0.00 | 48 | 1012.0 |
| 20260503194803 | 13 | 317 | 3.2 | 14.5 | 0.00 | 0.00 | 0.00 | 47 | 1012.1 |
| 20260503194303 | 13 | 310 | 6.4 | 25.7 | 0.00 | 0.00 | 0.00 | 48 | 1012.3 |
| 20260503193803 | 14 | 288 | 4.8 | 16.1 | 0.00 | 0.00 | 0.00 | 46 | 1012.2 |
| 20260503193303 | 13 | 269 | 1.6 | 25.7 | 0.00 | 0.00 | 0.00 | 48 | 1012.3 |
| 20260503192803 | 13 | 293 | 3.2 | 11.3 | 0.00 | 0.00 | 0.00 | 49 | 1012.2 |
| 20260503192305 | 13 | 329 | 9.7 | 19.3 | 0.00 | 0.00 | 0.00 | 47 | 1012.3 |
| 20260503191803 | 13 | 353 | 3.2 | 12.9 | 0.00 | 0.00 | 0.00 | 47 | 1012.4 |
| 20260503191304 | 13 | 314 | 6.4 | 16.1 | 0.00 | 0.00 | 0.00 | 47 | 1012.7 |
| 20260503190804 | 13 | 335 | 4.8 | 12.9 | 0.00 | 0.00 | 0.00 | 48 | 1012.7 |
| 20260503185804 | 13 | 281 | 9.7 | 29.0 | 0.00 | 0.00 | 0.00 | 49 | 1012.6 |
| 20260503185304 | 13 | 340 | 3.2 | 16.1 | 0.00 | 0.00 | 0.00 | 47 | 1012.9 |
| 20260503184804 | 13 | 310 | 4.8 | 14.5 | 0.00 | 0.00 | 0.00 | 48 | 1012.9 |
| 20260503184304 | 13 | 240 | 1.6 | 11.3 | 0.00 | 0.00 | 0.00 | 49 | 1012.9 |
| 20260503183804 | 13 | 317 | 8.0 | 22.5 | 0.00 | 0.00 | 0.00 | 48 | 1013.0 |
| 20260503183303 | 13 | 313 | 1.6 | 16.1 | 0.00 | 0.00 | 0.00 | 52 | 1012.9 |
| 20260503182803 | 13 | 210 | 1.6 | 8.0 | 0.00 | 0.00 | 0.00 | 49 | 1013.1 |
| 20260503181803 | 12 | 298 | 4.8 | 12.9 | 0.00 | 0.00 | 0.00 | 51 | 1013.2 |
| 20260503181303 | 12 | 270 | 3.2 | 12.9 | 0.00 | 0.00 | 0.00 | 51 | 1013.2 |
| 20260503180303 | 11 | 309 | 4.8 | 19.3 | 0.00 | 0.00 | 0.00 | 52 | 1013.2 |
| 20260503175803 | 11 | 0 | 4.8 | 12.9 | 0.00 | 0.00 | 0.00 | 51 | 1013.2 |
| 20260503174803 | 12 | 340 | 4.8 | 19.3 | 0.00 | 0.00 | 0.00 | 50 | 1013.4 |
| 20260503173806 | 12 | 309 | 4.8 | 12.9 | 0.00 | 0.00 | 0.00 | 50 | 1013.5 |
| 20260503173316 | 12 | 284 | 8.0 | 22.5 | 0.00 | 0.00 | 0.00 | 52 | 1013.4 |
| 20260503172827 | 11 | 305 | 8.0 | 20.9 | 0.00 | 0.00 | 0.00 | 52 | 1013.5 |
| 20260503171840 | 12 | 290 | 4.8 | 19.3 | 0.00 | 0.00 | 0.00 | 53 | 1013.7 |
| 20260503171303 | 11 | 314 | 9.7 | 20.9 | 0.00 | 0.00 | 0.00 | 51 | 1013.7 |
| 20260503170803 | 11 | 10 | 3.2 | 16.1 | 0.00 | 0.00 | 0.00 | 50 | 1013.6 |
| 20260503170302 | 11 | 296 | 8.0 | 20.9 | 0.00 | 0.00 | 0.00 | 53 | 1013.9 |
| 20260503150805 | 10 | 286 | 4.8 | 12.9 | 0.00 | 0.00 | 0.00 | 54 | 1014.3 |
| 20260503140303 | 7 | 0 | 8.0 | 20.9 | 0.00 | 0.00 | 0.00 | 62 | 1014.6 |
| 20260503131303 | 7 | 304 | 4.8 | 19.3 | 0.00 | 0.00 | 0.00 | 68 | 1014.7 |
| 20260503130803 | 7 | 301 | 8.0 | 19.3 | 0.00 | 0.00 | 0.00 | 68 | 1014.7 |
| 20260503130303 | 7 | 302 | 6.4 | 14.5 | 0.00 | 0.00 | 0.00 | 69 | 1014.7 |